Rbgn^[z[y[W
メイン
   新天体発見情報
     Comet C/2021 U5 (Catalina)
投稿するにはまず登録を

スレッド表示 | 新しいものから 前のトピック | 次のトピック | 下へ
投稿者 スレッド
佐藤裕久
投稿日時: 2021-11-20 20:42
モデレータ
登録日: 2005-6-12
居住地: 日本
投稿: 2279
オンライン
Comet C/2021 U5 (Catalina)

10月29日、A. R. GibbsがCatalina スカイサーベイの0.68-mシュミット望遠鏡で得たCCD画像
から小惑星状天体が発見された。
小惑星センターのPCCP webpageに公表後、L. Buzzi (Varese, イタリア: 測定はA. Aletti, 
11月6.2日UT、0.84-m f/3.5 反射望遠鏡, 15秒露出100枚のスタック, 集光した6"のコマ(光度
は18.8等)とp.a.290°に10" の尾がある)や佐藤英貴氏(東京都文京区,11月8.5日, 60秒露出
14枚のスタック,0.43-m f/6.8 アストログラフ, Mayhill近郊, ニューメキシコ州, 米国, 
遠隔操作: 強く集光した12"のコマが見え、p.a.270°に向かって15"の広い尾がある。7".6の
円形範囲で測定した光度は18.6等であった)らCCD位置観測者によって彗星状と観測された。

彗星機能の報告は次のとおり、

OC   Date        Reporter           Coma    Tail    PA          Exposures
F65  2021-11-06  B. Lutkenhoner     4"      20"    265-290        6x60s
204  2021-11-06  A. Aletti          6"      10"    290
H06  2021-11-08  H. Sato           12"      15"    270           14x60s

発見位置は次のとおり、

     2021 UT             R.A. (2000) Decl.       Mag.   Observer
     Oct. 29.49132    8 58 37.45   -20 02 23.4   19.1   Gibbs
          29.49595    8 58 37.96   -20 02 27.0   18.8     "
          29.50057    8 58 38.31   -20 02 28.2   18.7     "
          29.50519    8 58 38.69   -20 02 30.4   19.2     "

MPCの準放物線軌道要素、位置推算表は次のとおり

Orbital elements:
    C/2021 U5 (Catalina)                                                        
Epoch 2022 Jan. 21.0 TT = JDT 2459600.5                                         
T 2022 Jan. 26.01180 TT                                 Rudenko                 
q   2.3674730            (2000.0)            P               Q                  
z  +0.0025618      Peri.  321.18313     -0.80229299     -0.59611616             
 +/-0.0050944      Node   182.83655     +0.56782283     -0.77823649             
e   0.9939349      Incl.   39.03792     -0.18412818     +0.19746770             
From 56 observations 2021 Oct. 29-Nov. 9, mean residual 0".5.                   
                                                                                
    C/2021 U5 (Catalina)                                                        
Epoch 2022 Jan. 21.0 TT = JDT 2459600.5                                         
T 2022 Jan. 26.01180 TT                                 Rudenko                 
q   2.3674730            (2000.0)            P               Q                  
z  +0.0025618      Peri.  321.18313     -0.80229299     -0.59611616             
 +/-0.0050944      Node   182.83655     +0.56782283     -0.77823649             
e   0.9939349      Incl.   39.03792     -0.18412818     +0.19746770             
From 56 observations 2021 Oct. 29-Nov. 9, mean residual 0".5.                   
                                                                                
Ephemeris:
Date    TT    R. A. (2000) Decl.     Delta      r    Elong.  Phase   m1
2021 10 11    08 29 19.2 -16 48 15   2.8552  2.6458    67.9    20.5  19.5
...
2021 10 26    08 53 15.1 -19 25 24   2.6706  2.5771    73.8    21.7  19.2
...
2021 11 03    09 05 25.3 -20 49 53   2.5729  2.5438    77.2    22.4  19.1
...
2021 11 09    09 14 12.3 -21 52 27   2.5001  2.5205    79.8    22.8  19.0
2021 11 10    09 15 38.2 -22 02 45   2.4880  2.5168    80.2    22.8  19.0
2021 11 11    09 17 03.5 -22 13 00   2.4759  2.5131    80.7    22.9  19.0
...
2021 11 17    09 25 22.9 -23 13 24   2.4036  2.4917    83.4    23.2  18.9
...
2021 11 25    09 35 51.8 -24 29 59   2.3080  2.4657    87.2    23.6  18.7
...
2021 12 10    09 53 13.3 -26 34 48   2.1314  2.4246    95.0    23.9  18.5

(MPEC 2021-V199、CBET 5070)

スレッド表示 | 新しいものから 前のトピック | 次のトピック | トップ

投稿するにはまず登録を
 
© 1999 Tsutomu Seki.